[[{"header":{"parameterUnit":"m.s-1","parameterCategory":1,"la1":30.2991,"la2":30.254,"lo1":-89.0895,"lo2":-89.0444,"dy":0.0017,"dx":0.0017,"nx":28,"ny":28,"refTime":"2023-08-28T03:00:00:Z","depth":0,"parameterNumber":2,"parameterNumberName":"U-component_of_WINDS"},"data":[0,0,0,0,0,0,0,0,0,0,0,0,0,0,0,0,0,0,0,0,0,0,0,0,0,0,0,0,0,0,0,0,0,0,0,0,0,0,0,0,0,0,0,0,0,0,0,0,0,0,0,0,0,0,0,0,0,0,1.409,1.409,0,1.4089,1.4089,1.4089,1.4118,1.4119,1.412,1.4121,1.4118,1.4117,1.4116,0,0,0,0,0,0,0,0,0,0,0,0,0,1.4114,1.4113,1.409,1.409,1.409,1.4089,1.4089,1.4089,1.4118,1.4119,1.412,1.4121,1.4118,1.4117,1.4116,0,0,0,0,0,0,0,0,0,0,0,0,0,1.4107,1.4113,1.409,1.4104,1.4106,1.4089,1.4089,1.4089,1.4118,1.4119,1.412,1.4122,1.4118,1.4117,1.4116,1.4085,0,0,1.4112,1.4112,0,0,0,0,0,0,0,0,1.4108,1.4107,1.4102,1.4103,1.4105,1.4105,1.4097,1.4088,1.4118,1.4113,1.4121,1.4122,1.4112,1.4112,1.4109,1.4085,1.4085,1.4112,1.4111,1.4111,1.411,0,0,0,0,0,0,0,1.4108,1.4107,1.409,1.4102,1.4104,1.411,1.4111,1.4095,1.4106,1.4114,1.4116,1.4116,1.4113,1.411,1.4109,1.4085,1.4112,1.4111,1.411,1.411,1.4036,1.4035,0,0,0,0,0,0,1.4107,1.4107,1.409,1.409,1.4109,1.4109,1.4109,1.4104,1.4106,1.4108,1.4115,1.4117,1.4112,1.4111,1.4109,1.4073,1.4111,1.411,1.4109,1.4038,1.4036,1.4035,0,0,0,0,0,0,1.4107,1.4105,1.409,1.4099,1.4097,1.4107,1.4101,1.4103,1.41,1.4107,1.4109,1.4109,1.4112,1.4111,1.4091,1.4074,1.4109,1.4108,1.4039,1.4037,1.4036,1.4001,0,0,0,0,0,0,1.4108,1.4105,1.4094,1.4098,1.4097,1.4072,1.41,1.4102,1.4098,1.4101,1.4103,1.4104,1.4113,1.4093,1.409,1.4073,1.4107,1.4041,1.4038,1.4036,1.4004,1.3999,1.3994,0,0,0,0,0,1.4109,1.4083,1.4093,1.4091,1.4083,1.4071,1.407,1.4082,1.4097,1.4085,1.409,1.4104,1.4077,1.4091,1.4088,1.407,1.4042,1.4039,1.4036,1.4006,1.4,1.3994,0,0,0,0,0,0,1.4074,1.4084,1.4095,1.407,1.407,1.4076,1.4061,1.4074,1.4068,1.4071,1.4086,1.4086,1.4064,1.4065,1.4081,1.4041,1.4062,1.4058,1.404,1.4034,1.4029,1.4028,1.4106,0,0,0,0,0,1.4064,1.4054,1.4063,1.4041,1.404,1.4051,1.4046,1.4055,1.4055,1.4054,1.4058,1.4056,1.4048,1.4041,1.4033,1.4005,1.4006,1.3992,1.3987,1.3982,1.3978,1.3964,1.3958,1.4026,1.4026,1.4026,0,0,1.4042,1.4047,1.4039,1.4034,1.4034,1.4023,1.405,1.4037,1.4029,1.4052,1.4034,1.4037,1.4036,1.4012,1.4002,1.4013,1.396,1.3979,1.3975,1.3974,1.3961,1.3954,1.3948,1.4024,1.4024,1.4025,0,0,1.3997,1.3999,1.3981,1.3982,1.3983,1.3991,1.3987,1.3991,1.3994,1.3977,1.3994,1.3985,1.3969,1.3968,1.3966,1.3923,1.3935,1.392,1.3892,1.3878,1.3873,1.3868,1.3852,1.3846,1.3917,1.3916,1.3916,0,1.3969,1.3954,1.397,1.3956,1.3953,1.3976,1.3957,1.3957,1.3955,1.3952,1.3965,1.3947,1.3948,1.3925,1.3914,1.3912,1.3907,1.3919,1.3873,1.3868,1.3864,1.3849,1.3843,1.3915,1.3915,1.3915,1.3915,0,1.3919,1.3909,1.3894,1.3893,1.3889,1.3873,1.3886,1.388,1.389,1.3897,1.3879,1.3882,1.3875,1.3871,1.388,1.3849,1.3856,1.387,1.3891,1.3855,1.3841,1.3835,1.3912,1.3912,1.3913,1.3913,0,0,1.3849,1.386,1.3854,1.3854,1.3858,1.385,1.3836,1.3831,1.3825,1.3824,1.3811,1.3799,1.3813,1.381,1.382,1.3808,1.3774,1.3825,1.3825,1.3814,1.3739,1.3726,1.3719,1.3783,1.3782,1.3782,1.3738,0,1.3804,1.378,1.3795,1.3768,1.3759,1.3782,1.3769,1.377,1.3776,1.3769,1.3776,1.3767,1.3786,1.3785,1.3774,1.378,1.3758,1.3784,1.3771,1.377,1.3768,1.3712,1.3699,1.3658,1.3733,1.3732,1.3732,0,1.3748,1.3746,1.3718,1.3726,1.3723,1.3711,1.3708,1.3701,1.3703,1.3709,1.3707,1.3721,1.3707,1.373,1.3711,1.3728,1.3724,1.3726,1.3725,1.3722,1.3747,1.3707,1.3645,1.3638,1.3723,1.3724,1.3725,0,1.3698,1.3689,1.3671,1.3671,1.368,1.3671,1.3674,1.3678,1.3674,1.3672,1.367,1.3666,1.3663,1.3659,1.3672,1.3688,1.3651,1.3675,1.3654,1.3654,1.3643,1.3643,1.3578,1.3644,1.3644,1.3644,1.3644,0,1.3645,1.3627,1.3649,1.3638,1.3619,1.3637,1.3617,1.3623,1.3627,1.3617,1.3637,1.3627,1.3645,1.3638,1.3647,1.363,1.3629,1.3632,1.3635,1.3629,1.3629,1.3625,1.3628,1.3642,1.3643,1.3643,1.3643,0,1.3585,1.3599,1.3582,1.3593,1.3595,1.358,1.3589,1.3579,1.3588,1.3576,1.3574,1.3587,1.358,1.3593,1.3586,1.3593,1.3568,1.3576,1.3567,1.3569,1.3547,1.3548,1.3476,1.3467,1.354,1.3539,1.3538,0,1.355,1.3537,1.3547,1.3542,1.3545,1.3537,1.3534,1.3552,1.3548,1.3551,1.3541,1.3535,1.3531,1.3517,1.3526,1.3522,1.3528,1.3504,1.3527,1.3523,1.3526,1.3526,1.3525,1.3498,1.3497,1.3496,1.3495,0,1.3484,1.3493,1.3488,1.3486,1.3483,1.3482,1.3482,1.3478,1.3497,1.3491,1.3484,1.3482,1.3476,1.347,1.3468,1.3471,1.3486,1.3489,1.3483,1.3476,1.3471,1.3473,1.3552,1.3489,1.349,1.349,1.3491,1.3491,1.3435,1.3424,1.343,1.3425,1.3428,1.3428,1.342,1.3429,1.3423,1.3421,1.3432,1.3422,1.3427,1.3426,1.3427,1.342,1.3431,1.3423,1.3421,1.3418,1.3414,1.3475,1.342,1.342,1.342,1.342,1.342,0,1.3369,1.3375,1.337,1.3371,1.3367,1.3384,1.3386,1.3381,1.3373,1.3376,1.3373,1.3365,1.336,1.3369,1.3365,1.3358,1.3365,1.3356,1.3356,1.3356,1.3405,1.341,1.335,1.335,1.335,1.335,1.335,1.335,1.3335,1.3318,1.3328,1.3313,1.3319,1.331,1.331,1.3311,1.3314,1.3304,1.3301,1.3308,1.3313,1.3311,1.3307,1.331,1.3307,1.3295,1.33,1.3346,1.3352,1.3359,1.3363,1.3295,1.3295,1.3251,1.3251,1.3251]},{"header":{"parameterUnit":"m.s-1","parameterCategory":1,"la1":30.2991,"la2":30.254,"lo1":-89.0895,"lo2":-89.0444,"dy":0.0017,"dx":0.0017,"nx":28,"ny":28,"refTime":"2023-08-28T03:00:00:Z","depth":0,"parameterNumber":3,"parameterNumberName":"V-component_of_WINDS"},"data":[0,0,0,0,0,0,0,0,0,0,0,0,0,0,0,0,0,0,0,0,0,0,0,0,0,0,0,0,0,0,0,0,0,0,0,0,0,0,0,0,0,0,0,0,0,0,0,0,0,0,0,0,0,0,0,0,0,0,-0.2031,-0.203,0,-0.1906,-0.1905,-0.1904,-0.1797,-0.1795,-0.1794,-0.1793,-0.1669,-0.1667,-0.1665,0,0,0,0,0,0,0,0,0,0,0,0,0,-0.2182,-0.218,-0.2031,-0.203,-0.2028,-0.1907,-0.1905,-0.1903,-0.1797,-0.1795,-0.1794,-0.1793,-0.167,-0.1667,-0.1665,0,0,0,0,0,0,0,0,0,0,0,0,0,-0.2093,-0.2179,-0.2032,-0.196,-0.1953,-0.1907,-0.1905,-0.1903,-0.1797,-0.1795,-0.1794,-0.1792,-0.1671,-0.1668,-0.1664,-0.168,0,0,-0.1654,-0.1653,0,0,0,0,0,0,0,0,-0.2098,-0.2087,-0.1973,-0.1965,-0.1957,-0.1865,-0.1912,-0.1828,-0.1798,-0.1856,-0.1793,-0.1791,-0.1736,-0.1727,-0.1708,-0.1674,-0.1669,-0.1654,-0.1652,-0.1651,-0.165,0,0,0,0,0,0,0,-0.2104,-0.2092,-0.1982,-0.1971,-0.1961,-0.1936,-0.1921,-0.1896,-0.1808,-0.1851,-0.1843,-0.1829,-0.1731,-0.1711,-0.1704,-0.1667,-0.1654,-0.1651,-0.1649,-0.1648,-0.164,-0.1642,0,0,0,0,0,0,-0.2121,-0.2098,-0.1986,-0.1978,-0.2024,-0.1935,-0.1918,-0.1896,-0.1808,-0.1793,-0.1831,-0.1825,-0.1718,-0.1708,-0.17,-0.1712,-0.1651,-0.1648,-0.1646,-0.1638,-0.164,-0.1642,0,0,0,0,0,0,-0.2125,-0.2112,-0.1991,-0.2036,-0.2018,-0.1934,-0.191,-0.1895,-0.1875,-0.1793,-0.1777,-0.1827,-0.1716,-0.1704,-0.1685,-0.1706,-0.1646,-0.1643,-0.1636,-0.1639,-0.1641,-0.1737,0,0,0,0,0,0,-0.2129,-0.2114,-0.2118,-0.2037,-0.2017,-0.1978,-0.1912,-0.1894,-0.1869,-0.186,-0.1784,-0.177,-0.1714,-0.1691,-0.1682,-0.17,-0.1641,-0.1634,-0.1637,-0.1641,-0.1732,-0.1743,-0.1752,0,0,0,0,0,-0.2135,-0.2151,-0.2119,-0.2106,-0.202,-0.198,-0.1968,-0.1902,-0.1871,-0.1875,-0.1822,-0.1773,-0.1705,-0.169,-0.1679,-0.1697,-0.1632,-0.1637,-0.164,-0.1727,-0.174,-0.1752,0,0,0,0,0,0,-0.2239,-0.2139,-0.2102,-0.2092,-0.2045,-0.1962,-0.1965,-0.1918,-0.188,-0.1873,-0.1793,-0.1777,-0.1767,-0.173,-0.1715,-0.1707,-0.1662,-0.1664,-0.1732,-0.1744,-0.1754,-0.1763,-0.1638,0,0,0,0,0,-0.226,-0.2234,-0.2149,-0.2149,-0.2127,-0.205,-0.203,-0.1983,-0.1931,-0.1911,-0.1857,-0.181,-0.1778,-0.1759,-0.1725,-0.1726,-0.1708,-0.1733,-0.1743,-0.1752,-0.1754,-0.1752,-0.1762,-0.1655,-0.1655,-0.1655,0,0,-0.2304,-0.2247,-0.2236,-0.2168,-0.2126,-0.2102,-0.2034,-0.2012,-0.1994,-0.1908,-0.1886,-0.1846,-0.1788,-0.1779,-0.1772,-0.1748,-0.178,-0.1757,-0.1764,-0.1762,-0.1757,-0.1767,-0.1776,-0.1658,-0.1658,-0.1657,0,0,-0.2373,-0.2327,-0.2321,-0.228,-0.2216,-0.2165,-0.2164,-0.2087,-0.2056,-0.2033,-0.1969,-0.1947,-0.1893,-0.1855,-0.1828,-0.1882,-0.1835,-0.1874,-0.1927,-0.1925,-0.1933,-0.194,-0.1959,-0.1967,-0.1877,-0.1877,-0.1877,0,-0.2436,-0.2396,-0.2324,-0.2305,-0.2278,-0.2198,-0.2192,-0.2156,-0.2086,-0.2069,-0.2042,-0.1973,-0.1929,-0.1909,-0.1922,-0.1904,-0.19,-0.1882,-0.1938,-0.1944,-0.195,-0.1967,-0.1974,-0.1882,-0.1881,-0.1881,-0.188,0,-0.2478,-0.2451,-0.2454,-0.2387,-0.2359,-0.2348,-0.2274,-0.2255,-0.2211,-0.2163,-0.2141,-0.2085,-0.2038,-0.203,-0.1987,-0.2005,-0.1991,-0.1952,-0.1905,-0.1966,-0.1981,-0.1987,-0.1889,-0.1887,-0.1886,-0.1885,0,0,-0.2608,-0.25,-0.2502,-0.247,-0.2394,-0.2373,-0.2358,-0.2311,-0.2296,-0.2251,-0.2236,-0.2193,-0.2156,-0.2126,-0.2078,-0.2077,-0.2123,-0.2037,-0.2035,-0.2055,-0.2139,-0.2168,-0.2177,-0.2091,-0.2092,-0.2093,-0.2143,0,-0.2664,-0.263,-0.2564,-0.2552,-0.2527,-0.2451,-0.2437,-0.239,-0.2345,-0.2318,-0.2269,-0.224,-0.2193,-0.2175,-0.217,-0.2118,-0.2138,-0.2114,-0.2077,-0.2077,-0.2094,-0.2185,-0.2216,-0.2266,-0.2149,-0.215,-0.215,0,-0.2724,-0.2682,-0.2667,-0.2592,-0.2579,-0.2568,-0.2519,-0.2494,-0.244,-0.2407,-0.2374,-0.232,-0.2301,-0.2258,-0.2231,-0.2215,-0.2197,-0.2169,-0.217,-0.2163,-0.2117,-0.2181,-0.2281,-0.2289,-0.2159,-0.2158,-0.2158,0,-0.282,-0.2759,-0.2742,-0.2717,-0.263,-0.2624,-0.2588,-0.2531,-0.2507,-0.2465,-0.2448,-0.2406,-0.2382,-0.2351,-0.2288,-0.2262,-0.2267,-0.2219,-0.224,-0.2242,-0.2245,-0.2245,-0.2343,-0.2234,-0.2234,-0.2233,-0.2233,0,-0.2889,-0.2883,-0.2784,-0.2773,-0.2764,-0.269,-0.2683,-0.264,-0.259,-0.257,-0.2503,-0.2486,-0.2404,-0.2378,-0.2329,-0.2314,-0.2304,-0.2277,-0.2264,-0.2283,-0.2287,-0.227,-0.2264,-0.2235,-0.2235,-0.2235,-0.2234,0,-0.2995,-0.2928,-0.2904,-0.2823,-0.2803,-0.28,-0.2731,-0.2718,-0.2669,-0.2646,-0.2636,-0.2559,-0.2525,-0.2459,-0.2407,-0.2374,-0.237,-0.2347,-0.2388,-0.238,-0.2404,-0.2403,-0.2494,-0.2502,-0.2389,-0.239,-0.2391,0,-0.3043,-0.3036,-0.2954,-0.2936,-0.2901,-0.2873,-0.2847,-0.2774,-0.275,-0.2687,-0.2683,-0.2643,-0.2607,-0.2557,-0.2497,-0.2457,-0.2433,-0.2467,-0.2426,-0.2445,-0.2433,-0.2434,-0.2433,-0.2477,-0.2479,-0.248,-0.2481,0,-0.3136,-0.3103,-0.3069,-0.3022,-0.2994,-0.2954,-0.2911,-0.29,-0.2817,-0.2794,-0.2758,-0.273,-0.2676,-0.2638,-0.2589,-0.2553,-0.2503,-0.2494,-0.2497,-0.2516,-0.254,-0.2527,-0.2413,-0.2492,-0.2491,-0.249,-0.249,-0.2489,-0.3214,-0.3204,-0.3145,-0.3108,-0.3068,-0.3029,-0.3013,-0.2962,-0.293,-0.2879,-0.2838,-0.2806,-0.2751,-0.268,-0.2647,-0.262,-0.2597,-0.2601,-0.2602,-0.2604,-0.2611,-0.2544,-0.2611,-0.2611,-0.2611,-0.261,-0.261,0,-0.3303,-0.3261,-0.3228,-0.3169,-0.3141,-0.3096,-0.3046,-0.3025,-0.2997,-0.2949,-0.2915,-0.2874,-0.2836,-0.2774,-0.2731,-0.2722,-0.2699,-0.2714,-0.2714,-0.2706,-0.2635,-0.2637,-0.2734,-0.2734,-0.2734,-0.2734,-0.2734,-0.2734,-0.3346,-0.3327,-0.3287,-0.3248,-0.3205,-0.3172,-0.3147,-0.3111,-0.3073,-0.3029,-0.2997,-0.2956,-0.2903,-0.2856,-0.2819,-0.2802,-0.2789,-0.2812,-0.2788,-0.2723,-0.2711,-0.27,-0.2701,-0.281,-0.281,-0.286,-0.2861,-0.2861]}]]